Location: ??????
(41.3164°N, 22.6615°E)
Time: 17:55:12
(UTC+00:00)

CZ-2C R/B - Pass Details

Date: 22 May 2022
Orbit: 785 x 869 km, 98.2° (Epoch: 28 June)

Event Time Altitude Azimuth Distance (km) Brightness Sun altitude
Rises 01:20:31 0° 107° (ESE) 3,272 6.1 -16.3°
Reaches altitude 10° 01:24:44 10° 73° (ENE) 2,358 6.0 -15.7°
Maximum altitude 01:26:07 11° 58° (ENE) 2,291 6.2 -15.6°
Drops below altitude 10° 01:27:30 10° 42° (NE) 2,370 6.4 -15.4°
Sets 01:31:46 0° 8° (N) 3,324 6.7 -14.8°
